[[{"header":{"parameterUnit":"m.s-1","parameterCategory":1,"la1":30.2991,"la2":30.254,"lo1":-89.0895,"lo2":-89.0444,"dy":0.0017,"dx":0.0017,"nx":28,"ny":28,"refTime":"2023-07-31T09:00:00:Z","depth":0,"parameterNumber":2,"parameterNumberName":"U-component_of_WINDS"},"data":[0,0,0,0,0,0,0,0,0,0,0,0,0,0,0,0,0,0,0,0,0,0,0,0,0,0,0,0,0,0,0,0,0,0,0,0,0,0,0,0,0,0,0,0,0,0,0,0,0,0,0,0,0,0,0,0,0,0,0.9162,0.9163,0,0.9278,0.9279,0.9281,0.9322,0.9322,0.9322,0.9321,0.9438,0.9442,0.9445,0,0,0,0,0,0,0,0,0,0,0,0,0,0.8973,0.8976,0.9161,0.9163,0.9164,0.9278,0.9279,0.9281,0.9323,0.9322,0.9322,0.9321,0.9437,0.9441,0.9445,0,0,0,0,0,0,0,0,0,0,0,0,0,0.9068,0.8977,0.9161,0.9199,0.9203,0.9277,0.9279,0.9281,0.9323,0.9322,0.9321,0.9321,0.9436,0.9441,0.9446,0.949,0,0,0.9462,0.9464,0,0,0,0,0,0,0,0,0.9063,0.9075,0.9192,0.9196,0.9202,0.9285,0.9256,0.9351,0.9323,0.9277,0.9321,0.9321,0.9388,0.9397,0.942,0.9496,0.9501,0.9462,0.9466,0.9468,0.9469,0,0,0,0,0,0,0,0.9056,0.907,0.9208,0.9194,0.92,0.9209,0.9222,0.9274,0.9334,0.9281,0.9285,0.9298,0.939,0.9415,0.9423,0.9502,0.9462,0.9467,0.947,0.9472,0.962,0.9621,0,0,0,0,0,0,0.9043,0.9065,0.9204,0.9211,0.9129,0.9213,0.9227,0.9259,0.9334,0.9345,0.9298,0.9299,0.9406,0.9417,0.9427,0.9484,0.9468,0.9473,0.9476,0.9619,0.962,0.9621,0,0,0,0,0,0,0.9039,0.9056,0.9199,0.9139,0.9158,0.9217,0.9252,0.9261,0.9286,0.9347,0.9358,0.9312,0.9406,0.942,0.9474,0.9488,0.9475,0.948,0.9618,0.9619,0.9621,0.9597,0,0,0,0,0,0,0.9034,0.9054,0.9072,0.9139,0.9161,0.9245,0.9253,0.9264,0.9295,0.9298,0.9363,0.9373,0.9407,0.9466,0.9479,0.9495,0.9484,0.9617,0.9619,0.962,0.9597,0.9597,0.9597,0,0,0,0,0,0.9027,0.906,0.9073,0.9089,0.9185,0.9246,0.9258,0.9297,0.9296,0.9314,0.9353,0.9371,0.9485,0.9471,0.9487,0.9504,0.9616,0.9618,0.962,0.9596,0.9597,0.9597,0,0,0,0,0,0,0.8992,0.907,0.9084,0.9141,0.9186,0.9253,0.9277,0.9296,0.9342,0.9343,0.9388,0.9402,0.9453,0.9484,0.9468,0.9551,0.9552,0.9556,0.9528,0.9529,0.953,0.9521,0.9488,0,0,0,0,0,0.8991,0.9035,0.91,0.9143,0.9166,0.9217,0.9245,0.9271,0.932,0.9339,0.9382,0.9428,0.9474,0.9504,0.9549,0.9601,0.9616,0.9621,0.9621,0.9621,0.9625,0.9654,0.9657,0.9627,0.9627,0.9627,0,0,0.899,0.9037,0.9062,0.9138,0.9176,0.922,0.9233,0.9279,0.9311,0.9346,0.94,0.9433,0.9487,0.9541,0.9566,0.9568,0.9636,0.9624,0.9623,0.9627,0.9656,0.9659,0.9661,0.9628,0.9628,0.9628,0,0,0.9009,0.9049,0.909,0.9128,0.9187,0.9221,0.923,0.9294,0.9318,0.9373,0.94,0.9438,0.9517,0.9555,0.9584,0.9617,0.9634,0.963,0.9632,0.966,0.9662,0.9665,0.9676,0.9679,0.9634,0.9634,0.9634,0,0.8999,0.9066,0.9108,0.9152,0.9184,0.9219,0.9259,0.9294,0.9364,0.9385,0.9386,0.9486,0.9525,0.9587,0.9595,0.9618,0.9629,0.9623,0.9659,0.9662,0.9664,0.9675,0.968,0.9633,0.9633,0.9633,0.9633,0,0.9051,0.9097,0.9123,0.919,0.9225,0.9267,0.9314,0.9345,0.9367,0.9401,0.9456,0.9504,0.956,0.9577,0.9599,0.9642,0.9641,0.965,0.9652,0.9666,0.9677,0.9681,0.9631,0.9632,0.9632,0.9632,0,0,0.9051,0.9141,0.915,0.9181,0.9248,0.9284,0.9327,0.9383,0.9407,0.9454,0.9491,0.9557,0.9565,0.9599,0.9625,0.965,0.9672,0.9656,0.9658,0.9657,0.9722,0.9714,0.9718,0.9684,0.9685,0.9686,0.9717,0,0.9078,0.9159,0.9197,0.926,0.9303,0.9336,0.9373,0.9418,0.945,0.949,0.9526,0.9571,0.958,0.96,0.9626,0.9664,0.9686,0.9662,0.9718,0.972,0.9703,0.9724,0.9717,0.9743,0.9721,0.9722,0.9723,0,0.9121,0.9169,0.9236,0.9298,0.9317,0.935,0.9404,0.9442,0.9493,0.9515,0.9552,0.9578,0.9624,0.9622,0.9686,0.9669,0.9694,0.9716,0.9718,0.9724,0.9722,0.973,0.9753,0.9756,0.973,0.973,0.9729,0,0.9113,0.9194,0.9245,0.9271,0.9344,0.9367,0.9398,0.9448,0.9479,0.9526,0.9546,0.9597,0.9624,0.9663,0.9702,0.9697,0.9761,0.9763,0.9779,0.9778,0.9791,0.979,0.9817,0.9808,0.9808,0.9808,0.9808,0,0.914,0.9179,0.9243,0.9274,0.9319,0.9362,0.9405,0.9439,0.9484,0.9521,0.9552,0.9587,0.9636,0.9676,0.9707,0.9754,0.9766,0.9784,0.9792,0.9782,0.9779,0.9798,0.9797,0.9809,0.9809,0.9808,0.9808,0,0.9139,0.9183,0.924,0.9306,0.9323,0.9353,0.9408,0.9439,0.9473,0.952,0.9533,0.9586,0.9635,0.9678,0.9742,0.9762,0.9811,0.982,0.9794,0.9798,0.9812,0.981,0.9852,0.9859,0.9845,0.9846,0.9846,0,0.9152,0.9184,0.9252,0.928,0.9312,0.9356,0.9388,0.9431,0.9463,0.9523,0.9546,0.9598,0.9641,0.9717,0.9761,0.981,0.9821,0.9832,0.9828,0.9816,0.982,0.9818,0.9821,0.9832,0.9832,0.9832,0.9832,0,0.9171,0.9192,0.9237,0.929,0.9327,0.937,0.9414,0.9435,0.9487,0.952,0.9571,0.9605,0.9671,0.9721,0.9775,0.9806,0.9827,0.9833,0.9839,0.9828,0.9811,0.982,0.9793,0.9831,0.9831,0.9831,0.9831,0.9831,0.9178,0.9207,0.926,0.9309,0.9347,0.9388,0.942,0.9458,0.9502,0.9559,0.9582,0.9634,0.9683,0.9758,0.9789,0.983,0.9833,0.9842,0.9845,0.9846,0.9844,0.9805,0.984,0.984,0.984,0.984,0.984,0,0.9198,0.9234,0.9279,0.934,0.9378,0.9396,0.9446,0.9476,0.9521,0.9566,0.9608,0.9666,0.9715,0.9763,0.9814,0.9837,0.9847,0.9849,0.9847,0.9854,0.9838,0.9828,0.9839,0.9839,0.9839,0.9839,0.9839,0.9839,0.9213,0.9264,0.929,0.936,0.9395,0.9447,0.9473,0.951,0.9547,0.961,0.9651,0.9682,0.9728,0.9782,0.9828,0.984,0.9857,0.9856,0.9871,0.9855,0.9855,0.9854,0.9845,0.9859,0.9859,0.9883,0.9883,0.9883]},{"header":{"parameterUnit":"m.s-1","parameterCategory":1,"la1":30.2991,"la2":30.254,"lo1":-89.0895,"lo2":-89.0444,"dy":0.0017,"dx":0.0017,"nx":28,"ny":28,"refTime":"2023-07-31T09:00:00:Z","depth":0,"parameterNumber":3,"parameterNumberName":"V-component_of_WINDS"},"data":[0,0,0,0,0,0,0,0,0,0,0,0,0,0,0,0,0,0,0,0,0,0,0,0,0,0,0,0,0,0,0,0,0,0,0,0,0,0,0,0,0,0,0,0,0,0,0,0,0,0,0,0,0,0,0,0,0,0,4.3073,4.3072,0,4.2984,4.2983,4.2982,4.2897,4.2896,4.2895,4.2894,4.2797,4.2796,4.2794,0,0,0,0,0,0,0,0,0,0,0,0,0,4.3164,4.3162,4.3073,4.3072,4.307,4.2984,4.2983,4.2982,4.2897,4.2896,4.2894,4.2893,4.2798,4.2796,4.2794,0,0,0,0,0,0,0,0,0,0,0,0,0,4.3104,4.3162,4.3073,4.3018,4.3012,4.2984,4.2983,4.2981,4.2897,4.2896,4.2894,4.2893,4.2798,4.2796,4.2794,4.2812,0,0,4.2787,4.2786,0,0,0,0,0,0,0,0,4.3108,4.3101,4.3027,4.3022,4.3015,4.295,4.2979,4.2924,4.2898,4.2941,4.2894,4.2892,4.2849,4.2842,4.2829,4.2807,4.2803,4.2787,4.2785,4.2784,4.2783,0,0,0,0,0,0,0,4.3112,4.3104,4.3037,4.3026,4.3019,4.2996,4.2986,4.2969,4.2905,4.2937,4.293,4.2921,4.2845,4.2832,4.2826,4.2801,4.2787,4.2784,4.2783,4.2782,4.2788,4.2789,0,0,0,0,0,0,4.3125,4.3108,4.304,4.3035,4.3059,4.2996,4.2984,4.2972,4.2905,4.2893,4.2923,4.2918,4.2836,4.2829,4.2823,4.2838,4.2784,4.2782,4.2781,4.2786,4.2788,4.279,0,0,0,0,0,0,4.3128,4.312,4.3044,4.307,4.3058,4.2996,4.2983,4.2971,4.2958,4.2894,4.2882,4.2921,4.2835,4.2826,4.2815,4.2833,4.2781,4.2779,4.2784,4.2787,4.2789,4.287,0,0,0,0,0,0,4.3131,4.3121,4.3129,4.3071,4.3057,4.304,4.2984,4.2971,4.2954,4.2947,4.2889,4.2878,4.2833,4.2819,4.2813,4.2829,4.2777,4.2782,4.2785,4.2788,4.2865,4.2874,4.2882,0,0,0,0,0,4.3134,4.3154,4.313,4.3122,4.3066,4.3041,4.3033,4.2982,4.2956,4.2962,4.2921,4.288,4.2833,4.2819,4.2811,4.2827,4.2781,4.2785,4.2788,4.2861,4.2873,4.2882,0,0,0,0,0,0,4.3214,4.3145,4.3118,4.312,4.3087,4.3027,4.3033,4.2996,4.2969,4.2963,4.2899,4.2887,4.2883,4.2854,4.2839,4.284,4.2801,4.2803,4.2859,4.287,4.2878,4.2885,4.2775,0,0,0,0,0,4.3233,4.322,4.316,4.3167,4.3152,4.3096,4.3083,4.3047,4.301,4.2995,4.2953,4.2917,4.2894,4.288,4.2855,4.286,4.2846,4.2867,4.2876,4.2884,4.2886,4.2885,4.2894,4.2801,4.2801,4.2801,0,0,4.3269,4.323,4.3226,4.3182,4.3153,4.314,4.3085,4.3073,4.3062,4.2992,4.298,4.2949,4.2904,4.2901,4.2897,4.2876,4.2908,4.2888,4.2895,4.2893,4.289,4.2899,4.2906,4.2804,4.2803,4.2803,0,0,4.333,4.33,4.3302,4.3274,4.323,4.3193,4.3193,4.3139,4.3115,4.3102,4.305,4.3035,4.2997,4.2967,4.2947,4.2996,4.2956,4.2989,4.3035,4.3035,4.3042,4.3048,4.3065,4.3071,4.2992,4.2992,4.2992,0,4.338,4.336,4.3308,4.3299,4.3281,4.322,4.3221,4.3195,4.3146,4.3134,4.3111,4.3062,4.3027,4.3016,4.3028,4.3014,4.3012,4.2995,4.3046,4.3051,4.3056,4.3071,4.3078,4.2996,4.2996,4.2996,4.2995,0,4.3424,4.3411,4.3418,4.3373,4.3356,4.3352,4.3298,4.3286,4.3251,4.3215,4.3202,4.3159,4.3124,4.3119,4.3084,4.3102,4.309,4.3058,4.3017,4.307,4.3083,4.3088,4.3003,4.3001,4.3,4.2999,0,0,4.3532,4.3459,4.3462,4.3441,4.3388,4.3376,4.3369,4.3337,4.3328,4.3295,4.3286,4.3256,4.3225,4.3202,4.3164,4.3164,4.3205,4.3131,4.3129,4.3145,4.322,4.3245,4.3253,4.3178,4.3179,4.318,4.3224,0,4.3583,4.3569,4.3522,4.3521,4.3507,4.3448,4.3442,4.3408,4.3374,4.3356,4.3317,4.3297,4.3258,4.3244,4.3242,4.32,4.3219,4.3196,4.3168,4.3167,4.3181,4.326,4.3286,4.333,4.3229,4.3229,4.323,0,4.3641,4.3614,4.3613,4.356,4.3552,4.3548,4.3514,4.3498,4.3458,4.3433,4.3408,4.3366,4.3353,4.3316,4.3297,4.3283,4.3268,4.3246,4.3247,4.3241,4.3202,4.3256,4.3342,4.3349,4.3238,4.3237,4.3237,0,4.3719,4.3682,4.3676,4.366,4.3599,4.3597,4.3571,4.3529,4.3513,4.3483,4.3471,4.3439,4.3421,4.3397,4.3346,4.3324,4.3332,4.3291,4.331,4.3311,4.3313,4.3314,4.3398,4.3305,4.3305,4.3305,4.3305,0,4.378,4.3782,4.3711,4.3707,4.3706,4.3651,4.3651,4.3619,4.3583,4.357,4.3517,4.3506,4.344,4.3421,4.3381,4.3371,4.3363,4.3341,4.3331,4.3346,4.3349,4.3335,4.333,4.3307,4.3307,4.3306,4.3306,0,4.3867,4.382,4.381,4.3753,4.3739,4.3741,4.3691,4.3685,4.3648,4.3633,4.3626,4.3567,4.3542,4.349,4.345,4.3423,4.3421,4.3403,4.3436,4.3429,4.345,4.3449,4.3528,4.3535,4.3439,4.344,4.3441,0,4.391,4.3909,4.3853,4.3842,4.3819,4.3802,4.3785,4.373,4.3714,4.3668,4.3667,4.3638,4.3612,4.3574,4.3527,4.3496,4.3475,4.3505,4.347,4.3485,4.3475,4.3475,4.3474,4.3513,4.3514,4.3515,4.3516,0,4.3989,4.3966,4.3945,4.3915,4.3897,4.3871,4.3842,4.3835,4.3772,4.3757,4.3732,4.3712,4.3672,4.3644,4.3605,4.3576,4.3535,4.3528,4.353,4.3546,4.3565,4.3554,4.3457,4.3526,4.3525,4.3524,4.3524,4.3523,4.4054,4.4051,4.4011,4.3989,4.3962,4.3936,4.3927,4.3889,4.3868,4.3832,4.38,4.3778,4.3736,4.3681,4.3654,4.3635,4.3614,4.3618,4.3619,4.3621,4.3627,4.3569,4.3627,4.3627,4.3627,4.3626,4.3626,0,4.4131,4.4102,4.4083,4.4044,4.4026,4.3992,4.3957,4.3944,4.3926,4.3891,4.3867,4.3838,4.381,4.376,4.3728,4.3721,4.3701,4.3714,4.3714,4.3708,4.3647,4.3648,4.3731,4.3731,4.3731,4.3731,4.3731,4.3731,4.4168,4.4161,4.4133,4.4111,4.4082,4.4061,4.4044,4.4019,4.3991,4.3962,4.3939,4.3908,4.3866,4.383,4.3802,4.3788,4.3778,4.3797,4.3777,4.3722,4.3712,4.3702,4.3703,4.3796,4.3796,4.3839,4.3839,4.384]}]]